M I D A S
Marine Information and Data Acquisition System
Tripno 2149 of the Zeeleeuw from 2011-07-20 06:56:54 to 2011-07-20 15:44:48
Back to CruiseResearch ActivitiesStationsMapUnderway DataData graphs

EquipmentUnitsComments
TimeDGPSUTC
LatitudeDGPSDM.mWGS84
LongitudeDGPSDM.mWGS84
SpeedMeteo Stationm/sRelative wind speed
DirectionMeteo StationdegRelative wind direction
TemperatureMeteo Stationdeg CelciusAir temperature
PressureMeteo StationPaAtmospheric pressure
HumidityMeteo Station%Relative humidity
Missing or incorrect values are displayed as -999
Metereological data collected by the RV Zeeleeuw from 2011-07-20 06:46:38 to 2011-07-20 16:07:07
Time Latitude Longitude Speed Direction Temperature Pressure Humidity
2011-07-20 06:47 51°13.635 2°56.019 -999 55 16.4 100790 48
2011-07-20 06:48 51°13.636 2°56.02 -999 55 16.5 100790 48
2011-07-20 06:49 51°13.636 2°56.02 -999 54 16.5 100790 48
2011-07-20 06:50 51°13.636 2°56.019 -999 55 16.5 100790 48
2011-07-20 06:51 51°13.636 2°56.019 -999 55 16.4 100800 48
2011-07-20 06:52 51°13.636 2°56.019 -999 55 16.4 100790 47
2011-07-20 06:53 51°13.637 2°56.019 -999 55 16.3 100790 48
2011-07-20 06:54 51°13.636 2°56.019 0.1 55 16.3 100800 48
2011-07-20 06:55 51°13.636 2°56.019 -999 55 16.4 100790 48
2011-07-20 06:56 51°13.637 2°56.022 -999 55 16.5 100800 48
2011-07-20 06:57 51°13.636 2°56.019 -999 55 16.6 100800 49
2011-07-20 06:58 51°13.636 2°56.019 -999 55 16.5 100790 48
2011-07-20 06:59 51°13.635 2°56.019 -999 55 16.6 100790 48
2011-07-20 07:00 51°13.637 2°56.008 1.5 50 16.7 100800 47
2011-07-20 07:01 51°13.667 2°55.905 -999 55 16.6 100800 47
2011-07-20 07:02 51°13.701 2°55.805 -999 55 16.8 100790 48
2011-07-20 07:03 51°13.757 2°55.704 -999 55 17.1 100800 48
2011-07-20 07:04 51°13.838 2°55.622 -999 55 17.4 100800 48
2011-07-20 07:05 51°13.924 2°55.598 -999 38 17.2 100800 46
2011-07-20 07:06 51°13.967 2°55.61 2.4 24 16.9 100800 47
2011-07-20 07:07 51°13.972 2°55.557 4.1 338 16.8 100800 47
2011-07-20 07:08 51°14.056 2°55.465 5.3 325 16.6 100800 46
2011-07-20 07:09 51°14.174 2°55.378 5.2 329 16.5 100800 47
2011-07-20 07:10 51°14.302 2°55.258 6.6 328 16.5 100790 48
2011-07-20 07:11 51°14.441 2°55.1 6.6 328 16.4 100790 48
2011-07-20 07:12 51°14.592 2°54.905 8.5 327 16.4 100800 46
2011-07-20 07:13 51°14.763 2°54.705 8.7 303 16.4 100800 47
2011-07-20 07:14 51°14.937 2°54.51 10 328 16.4 100800 48
2011-07-20 07:15 51°15.116 2°54.316 8.7 328 16.3 100800 48
2011-07-20 07:16 51°15.282 2°54.105 8.5 329 16.3 100790 46
2011-07-20 07:17 51°15.445 2°53.89 9.5 327 16.3 100800 48
2011-07-20 07:18 51°15.615 2°53.701 7.3 325 16.3 100800 47
2011-07-20 07:19 51°15.794 2°53.511 7.5 327 16.2 100800 48
2011-07-20 07:20 51°15.986 2°53.381 7.7 301 16.2 100790 47
2011-07-20 07:21 51°16.179 2°53.283 8.8 304 16.2 100800 47
2011-07-20 07:22 51°16.39 2°53.206 6.8 325 16.2 100800 48
2011-07-20 07:23 51°16.592 2°53.119 8 325 16.2 100800 47
2011-07-20 07:24 51°16.797 2°53.069 7.3 327 16.2 100800 46
2011-07-20 07:25 51°16.999 2°53.018 7 304 16.2 100800 47
2011-07-20 07:26 51°17.2 2°53.049 7.2 306 16.2 100800 48
2011-07-20 07:27 51°17.4 2°53.139 6.7 303 16.2 100800 46
2011-07-20 07:28 51°17.588 2°53.266 7.5 307 16.2 100800 48
2011-07-20 07:29 51°17.759 2°53.432 5.9 278 16.2 100810 47
2011-07-20 07:30 51°17.893 2°53.663 6.6 308 16.3 100800 47
2011-07-20 07:31 51°18.011 2°53.927 5.2 279 16.3 100800 46
2011-07-20 07:32 51°18.135 2°54.176 5.4 307 16.4 100800 47
2011-07-20 07:33 51°18.246 2°54.434 4.9 280 16.3 100800 47
2011-07-20 07:34 51°18.377 2°54.681 5.5 308 16.3 100800 47
2011-07-20 07:35 51°18.488 2°54.937 5.3 285 16.3 100810 46
2011-07-20 07:36 51°18.606 2°55.194 5.5 304 16.3 100810 48
2011-07-20 07:37 51°18.709 2°55.461 4 278 16.2 100800 48
2011-07-20 07:38 51°18.788 2°55.749 5.1 302 16.2 100800 48
2011-07-20 07:39 51°18.881 2°56.026 5.6 281 16.2 100810 47
2011-07-20 07:40 51°18.962 2°56.311 4.2 301 16.2 100810 46
2011-07-20 07:41 51°19.055 2°56.587 4.9 284 16.2 100810 46
2011-07-20 07:42 51°19.138 2°56.87 5.3 308 16.2 100810 48
2011-07-20 07:43 51°19.221 2°57.154 5.3 279 16.2 100810 48
2011-07-20 07:44 51°19.322 2°57.43 4 308 16.2 100810 46
2011-07-20 07:45 51°19.419 2°57.702 4 283 16.2 100810 48
2011-07-20 07:46 51°19.497 2°57.982 5.1 321 16.3 100810 46
2011-07-20 07:47 51°19.596 2°58.257 5.1 282 16.3 100810 47
2011-07-20 07:48 51°19.676 2°58.535 4.4 307 16.3 100820 46
2011-07-20 07:49 51°19.764 2°58.811 5.1 278 16.3 100820 48
2011-07-20 07:50 51°19.859 2°59.086 5.3 303 16.3 100810 47
2011-07-20 07:51 51°19.945 2°59.355 5.2 278 16.2 100820 47
2011-07-20 07:52 51°20.028 2°59.639 3.9 305 16.3 100810 46
2011-07-20 07:53 51°20.103 2°59.916 3.8 279 16.2 100820 48
2011-07-20 07:54 51°20.187 3°0.191 5.1 303 16.2 100810 48
2011-07-20 07:55 51°20.269 3°0.467 4.1 278 16.3 100810 48
2011-07-20 07:56 51°20.366 3°0.73 5 278 16.3 100810 47
2011-07-20 07:57 51°20.456 3°0.995 4.7 301 16.4 100820 46
2011-07-20 07:58 51°20.53 3°1.275 4.6 308 16.4 100810 47
2011-07-20 07:59 51°20.601 3°1.551 4.4 323 16.4 100820 48
2011-07-20 08:00 51°20.678 3°1.811 3.9 284 16.5 100820 46
2011-07-20 08:01 51°20.807 3°1.831 6.4 300 16.5 100820 46
2011-07-20 08:02 51°20.802 3°1.603 6.3 285 16.5 100810 47
2011-07-20 08:03 51°20.661 3°1.449 6.3 282 16.4 100820 46
2011-07-20 08:04 51°20.511 3°1.291 5.5 344 16.4 100820 46
2011-07-20 08:05 51°20.404 3°1.163 4.8 279 16.3 100820 46
2011-07-20 08:06 51°20.35 3°1.063 4.4 278 16.2 100830 48
2011-07-20 08:07 51°20.304 3°0.937 5 342 16.2 100820 48
2011-07-20 08:08 51°20.256 3°0.772 5.7 279 16.2 100830 47
2011-07-20 08:09 51°20.186 3°0.542 6.3 335 16.2 100820 47
2011-07-20 08:10 51°20.177 3°0.279 6 284 16.3 100830 46
2011-07-20 08:11 51°20.259 3°0.165 4.4 307 16.3 100830 47
2011-07-20 08:12 51°20.293 3°0.249 -999 55 16.4 100830 46
2011-07-20 08:13 51°20.286 3°0.47 -999 281 16.5 100840 48
2011-07-20 08:14 51°20.344 3°0.715 2.7 302 16.7 100840 48
2011-07-20 08:15 51°20.429 3°0.972 3 280 16.7 100840 48
2011-07-20 08:16 51°20.505 3°1.24 1.7 305 16.7 100830 48
2011-07-20 08:17 51°20.57 3°1.516 0.1 282 16.6 100840 48
2011-07-20 08:18 51°20.657 3°1.782 2.4 303 16.7 100830 46
2011-07-20 08:19 51°20.727 3°2.048 1.6 280 16.6 100840 47
2011-07-20 08:20 51°20.796 3°2.308 0.4 303 16.7 100840 45
2011-07-20 08:21 51°20.87 3°2.353 2.6 284 16.7 100830 47
2011-07-20 08:22 51°20.918 3°2.354 -999 55 16.7 100840 47
2011-07-20 08:23 51°20.971 3°2.475 -999 281 16.7 100840 47
2011-07-20 08:24 51°21.02 3°2.703 -999 329 16.8 100840 47
2011-07-20 08:25 51°21.02 3°2.967 -999 281 16.8 100840 47
2011-07-20 08:26 51°21.023 3°3.236 -999 305 16.9 100840 47
2011-07-20 08:27 51°21.016 3°3.496 -999 281 16.9 100840 47
2011-07-20 08:28 51°21.002 3°3.765 -999 338 16.9 100840 46
2011-07-20 08:29 51°21.03 3°4.016 -999 281 16.8 100840 47
2011-07-20 08:30 51°21.064 3°4.273 -999 336 16.8 100840 47
2011-07-20 08:31 51°21.084 3°4.534 -999 281 16.8 100840 47
2011-07-20 08:32 51°21.12 3°4.793 -999 336 16.8 100840 47
2011-07-20 08:33 51°21.139 3°5.047 0.1 281 17 100840 48
2011-07-20 08:34 51°21.171 3°5.304 -999 335 17.2 100840 47
2011-07-20 08:35 51°21.185 3°5.558 -999 281 17.3 100840 47
2011-07-20 08:36 51°21.216 3°5.81 -999 305 17.3 100840 46
2011-07-20 08:37 51°21.231 3°6.07 -999 281 17.4 100840 46
2011-07-20 08:38 51°21.253 3°6.317 -999 305 17.4 100840 46
2011-07-20 08:39 51°21.282 3°6.565 -999 281 17.4 100830 46
2011-07-20 08:40 51°21.327 3°6.654 -999 281 17.3 100840 46
2011-07-20 08:41 51°21.378 3°6.579 5.4 285 17.3 100830 46
2011-07-20 08:42 51°21.386 3°6.434 5.1 344 17.2 100830 47
2011-07-20 08:43 51°21.324 3°6.332 3.4 3 16.9 100830 45
2011-07-20 08:44 51°21.218 3°6.268 5.5 359 16.8 100840 44
2011-07-20 08:45 51°21.141 3°6.176 5.2 357 16.6 100830 48
2011-07-20 08:46 51°21.078 3°6.09 5.2 359 16.6 100830 48
2011-07-20 08:47 51°21.021 3°6.013 3.8 356 16.4 100830 46
2011-07-20 08:48 51°20.968 3°5.934 5.2 355 16.4 100840 48
2011-07-20 08:49 51°20.919 3°5.853 4.8 352 16.4 100840 47
2011-07-20 08:50 51°20.875 3°5.767 5.5 345 16.3 100840 47
2011-07-20 08:51 51°20.848 3°5.656 6.1 285 16.3 100840 48
2011-07-20 08:52 51°20.848 3°5.529 6.9 306 16.4 100840 47
2011-07-20 08:53 51°20.863 3°5.408 6.6 279 16.4 100840 48
2011-07-20 08:54 51°20.891 3°5.294 6.8 307 16.4 100840 47
2011-07-20 08:55 51°20.929 3°5.196 5.5 279 16.5 100840 46
2011-07-20 08:56 51°20.973 3°5.117 4.9 307 16.6 100840 48
2011-07-20 08:57 51°21.026 3°5.051 5.3 279 16.6 100840 46
2011-07-20 08:58 51°21.081 3°5.007 5.1 308 16.6 100840 47
2011-07-20 08:59 51°21.134 3°4.989 5.1 284 16.6 100840 47
2011-07-20 09:00 51°21.186 3°4.993 1.3 307 16.7 100850 47
2011-07-20 09:01 51°21.232 3°5.014 -999 281 16.7 100850 47
2011-07-20 09:02 51°21.276 3°5.041 -999 305 16.7 100850 47
2011-07-20 09:03 51°21.317 3°5.072 -999 281 16.7 100850 47
2011-07-20 09:04 51°21.366 3°5.095 -999 281 16.8 100850 47
2011-07-20 09:05 51°21.415 3°5.11 -999 305 16.8 100850 47
2011-07-20 09:06 51°21.464 3°5.134 -999 281 16.8 100850 47
2011-07-20 09:07 51°21.509 3°5.167 0.1 305 16.8 100850 46
2011-07-20 09:08 51°21.551 3°5.206 -999 281 16.7 100850 45
2011-07-20 09:09 51°21.59 3°5.25 -999 305 16.7 100860 47
2011-07-20 09:10 51°21.624 3°5.299 -999 305 16.6 100850 47
2011-07-20 09:11 51°21.654 3°5.353 -999 305 16.6 100850 47
2011-07-20 09:12 51°21.685 3°5.403 -999 281 16.6 100860 47
2011-07-20 09:13 51°21.702 3°5.47 -999 55 16.6 100850 47
2011-07-20 09:14 51°21.711 3°5.542 -999 55 16.6 100860 47
2011-07-20 09:15 51°21.709 3°5.614 -999 55 16.5 100860 47
2011-07-20 09:16 51°21.694 3°5.687 -999 79 16.5 100870 46
2011-07-20 09:17 51°21.663 3°5.754 -999 79 16.4 100870 47
2011-07-20 09:18 51°21.618 3°5.811 -999 37 16.4 100860 47
2011-07-20 09:19 51°21.555 3°5.84 -999 23 16.4 100860 47
2011-07-20 09:20 51°21.48 3°5.824 -999 19 16.5 100860 47
2011-07-20 09:21 51°21.404 3°5.775 -999 9 16.4 100860 47
2011-07-20 09:22 51°21.333 3°5.679 -999 355 16.4 100860 47
2011-07-20 09:23 51°21.284 3°5.559 -999 281 16.3 100850 47
2011-07-20 09:24 51°21.251 3°5.455 -999 349 16.3 100860 46
2011-07-20 09:25 51°21.223 3°5.369 -999 353 16.1 100860 47
2011-07-20 09:26 51°21.198 3°5.294 -999 351 16.1 100870 47
2011-07-20 09:27 51°21.174 3°5.226 -999 356 16.1 100870 47
2011-07-20 09:28 51°21.151 3°5.162 -999 356 16.1 100870 48
2011-07-20 09:29 51°21.127 3°5.09 -999 347 16.1 100870 48
2011-07-20 09:30 51°21.127 3°4.967 -999 281 16.1 100870 48
2011-07-20 09:31 51°21.172 3°4.911 -999 305 16.2 100870 48
2011-07-20 09:32 51°21.197 3°4.963 -999 282 16.2 100880 46
2011-07-20 09:33 51°21.225 3°5.076 -999 281 16.4 100880 48
2011-07-20 09:34 51°21.24 3°5.226 -999 305 16.5 100880 48
2011-07-20 09:35 51°21.252 3°5.381 -999 281 16.7 100880 48
2011-07-20 09:36 51°21.266 3°5.536 -999 305 16.8 100880 48
2011-07-20 09:37 51°21.287 3°5.689 -999 281 16.9 100880 48
2011-07-20 09:38 51°21.301 3°5.847 -999 305 16.9 100880 48
2011-07-20 09:39 51°21.302 3°6.01 -999 281 16.9 100880 47
2011-07-20 09:40 51°21.29 3°6.148 -999 55 16.8 100880 45
2011-07-20 09:41 51°21.281 3°6.258 -999 79 16.7 100880 47
2011-07-20 09:42 51°21.276 3°6.363 -999 79 16.6 100880 47
2011-07-20 09:43 51°21.267 3°6.464 -999 56 16.6 100880 47
2011-07-20 09:44 51°21.255 3°6.565 -999 79 16.7 100880 47
2011-07-20 09:45 51°21.243 3°6.666 -999 79 16.7 100880 47
2011-07-20 09:46 51°21.235 3°6.77 -999 55 16.7 100880 47
2011-07-20 09:47 51°21.229 3°6.873 -999 79 16.8 100880 47
2011-07-20 09:48 51°21.222 3°6.979 -999 79 16.7 100890 45
2011-07-20 09:49 51°21.209 3°7.085 -999 79 16.6 100880 47
2011-07-20 09:50 51°21.209 3°7.186 -999 281 16.7 100880 47
2011-07-20 09:51 51°21.221 3°7.284 -999 281 16.8 100890 47
2011-07-20 09:52 51°21.232 3°7.386 -999 305 16.8 100890 47
2011-07-20 09:53 51°21.245 3°7.49 -999 281 16.9 100880 47
2011-07-20 09:54 51°21.253 3°7.597 -999 305 17 100880 47
2011-07-20 09:55 51°21.258 3°7.707 -999 281 17 100880 47
2011-07-20 09:56 51°21.264 3°7.814 -999 305 17 100880 45
2011-07-20 09:57 51°21.274 3°7.917 -999 281 16.9 100880 46
2011-07-20 09:58 51°21.284 3°8.021 -999 305 16.9 100880 46
2011-07-20 09:59 51°21.29 3°8.126 -999 281 16.8 100880 47
2011-07-20 10:00 51°21.294 3°8.232 -999 56 16.9 100880 46
2011-07-20 10:01 51°21.299 3°8.337 -999 281 16.9 100880 46
2011-07-20 10:02 51°21.306 3°8.442 -999 305 16.9 100880 46
2011-07-20 10:03 51°21.318 3°8.538 -999 281 17 100870 47
2011-07-20 10:04 51°21.353 3°8.612 -999 305 17 100870 45
2011-07-20 10:05 51°21.401 3°8.669 -999 281 17 100870 46
2011-07-20 10:06 51°21.459 3°8.697 -999 305 17.1 100870 46
2011-07-20 10:07 51°21.527 3°8.687 -999 281 17.2 100870 46
2011-07-20 10:08 51°21.597 3°8.668 -999 281 17.1 100870 45
2011-07-20 10:09 51°21.67 3°8.639 -999 281 17 100860 45
2011-07-20 10:10 51°21.734 3°8.561 -999 281 16.9 100860 45
2011-07-20 10:11 51°21.762 3°8.422 -999 281 16.8 100860 45
2011-07-20 10:12 51°21.734 3°8.271 -999 346 16.7 100860 44
2011-07-20 10:13 51°21.69 3°8.137 -999 281 16.5 100860 46
2011-07-20 10:14 51°21.655 3°8.023 -999 346 16.4 100860 46
2011-07-20 10:15 51°21.626 3°7.919 -999 281 16.4 100870 47
2011-07-20 10:16 51°21.597 3°7.82 -999 349 16.4 100870 47
2011-07-20 10:17 51°21.567 3°7.725 -999 349 16.3 100860 46
2011-07-20 10:18 51°21.535 3°7.634 -999 351 16.2 100870 47
2011-07-20 10:19 51°21.504 3°7.545 -999 351 16.1 100860 47
2011-07-20 10:20 51°21.472 3°7.458 -999 349 16.2 100870 46
2011-07-20 10:21 51°21.441 3°7.374 -999 281 16.2 100870 47
2011-07-20 10:22 51°21.409 3°7.274 -999 339 16.1 100870 47
2011-07-20 10:23 51°21.419 3°7.084 -999 281 16.1 100870 47
2011-07-20 10:24 51°21.495 3°6.833 -999 305 16.2 100860 47
2011-07-20 10:25 51°21.595 3°6.591 -999 281 16.4 100860 47
2011-07-20 10:26 51°21.718 3°6.388 -999 305 16.4 100850 47
2011-07-20 10:27 51°21.867 3°6.271 -999 281 16.4 100860 47
2011-07-20 10:28 51°21.996 3°6.299 -999 281 16.4 100880 45
2011-07-20 10:29 51°22.062 3°6.346 -999 281 16.4 100890 47
2011-07-20 10:30 51°22.2 3°6.368 -999 305 16.5 100870 47
2011-07-20 10:31 51°22.385 3°6.41 -999 281 16.5 100870 46
2011-07-20 10:32 51°22.559 3°6.513 -999 281 16.3 100870 46
2011-07-20 10:33 51°22.733 3°6.616 -999 281 16.4 100870 46
2011-07-20 10:34 51°22.91 3°6.714 -999 281 16.3 100870 46
2011-07-20 10:35 51°23.079 3°6.828 -999 281 16.4 100880 46
2011-07-20 10:36 51°23.263 3°6.858 -999 281 16.4 100870 45
2011-07-20 10:37 51°23.457 3°6.81 -999 281 16.3 100860 46
2011-07-20 10:38 51°23.655 3°6.761 -999 305 16.3 100880 46
2011-07-20 10:39 51°23.858 3°6.73 -999 304 16.3 100880 46
2011-07-20 10:40 51°24.064 3°6.698 -999 281 16.3 100860 46
2011-07-20 10:41 51°24.268 3°6.691 -999 305 16.3 100870 46
2011-07-20 10:42 51°24.445 3°6.665 -999 281 16.3 100870 46
2011-07-20 10:43 51°24.541 3°6.695 -999 305 16.3 100880 46
2011-07-20 10:44 51°24.598 3°6.779 -999 281 16.4 100880 45
2011-07-20 10:45 51°24.623 3°6.911 -999 281 16.5 100890 46
2011-07-20 10:46 51°24.615 3°7.061 -999 305 16.6 100890 46
2011-07-20 10:47 51°24.605 3°7.215 -999 79 16.6 100890 46
2011-07-20 10:48 51°24.594 3°7.37 -999 305 16.6 100890 46
2011-07-20 10:49 51°24.581 3°7.526 -999 79 16.7 100890 45
2011-07-20 10:50 51°24.566 3°7.682 -999 56 16.8 100890 47
2011-07-20 10:51 51°24.548 3°7.838 -999 79 17 100890 47
2011-07-20 10:52 51°24.542 3°7.992 -999 305 17.2 100890 46
2011-07-20 10:53 51°24.544 3°8.145 -999 79 17.2 100890 46
2011-07-20 10:54 51°24.543 3°8.299 -999 60 17.1 100890 46
2011-07-20 10:55 51°24.536 3°8.454 -999 79 17.1 100890 46
2011-07-20 10:56 51°24.531 3°8.609 -999 281 17.2 100890 46
2011-07-20 10:57 51°24.53 3°8.762 -999 281 17.3 100890 47
2011-07-20 10:58 51°24.53 3°8.914 -999 281 17.4 100890 47
2011-07-20 10:59 51°24.527 3°9.066 -999 56 17.5 100900 46
2011-07-20 11:00 51°24.519 3°9.216 -999 79 17.4 100890 44
2011-07-20 11:01 51°24.517 3°9.364 -999 305 17.3 100890 45
2011-07-20 11:02 51°24.517 3°9.51 -999 281 17.4 100890 46
2011-07-20 11:03 51°24.514 3°9.657 -999 281 17.5 100890 46
2011-07-20 11:04 51°24.507 3°9.801 -999 305 17.5 100890 45
2011-07-20 11:05 51°24.505 3°9.947 -999 281 17.5 100890 45
2011-07-20 11:06 51°24.536 3°10.052 -999 305 17.4 100890 45
2011-07-20 11:07 51°24.604 3°10.026 -999 281 17.4 100890 45
2011-07-20 11:08 51°24.627 3°9.89 -999 334 17.4 100890 44
2011-07-20 11:09 51°24.623 3°9.718 -999 281 17.1 100880 44
2011-07-20 11:10 51°24.623 3°9.538 -999 333 16.9 100890 45
2011-07-20 11:11 51°24.626 3°9.363 -999 281 16.7 100890 46
2011-07-20 11:12 51°24.63 3°9.216 -999 332 16.7 100890 46
2011-07-20 11:13 51°24.631 3°9.08 -999 281 16.5 100900 46
2011-07-20 11:14 51°24.627 3°8.948 -999 333 16.5 100900 46
2011-07-20 11:15 51°24.624 3°8.821 -999 281 16.5 100900 46
2011-07-20 11:16 51°24.625 3°8.688 -999 333 16.4 100900 45
2011-07-20 11:17 51°24.627 3°8.56 -999 281 16.4 100900 46
2011-07-20 11:18 51°24.626 3°8.431 -999 281 16.3 100890 46
2011-07-20 11:19 51°24.621 3°8.301 -999 336 16.3 100900 46
2011-07-20 11:20 51°24.618 3°8.173 -999 337 16.3 100900 46
2011-07-20 11:21 51°24.639 3°8.015 -999 330 16.3 100900 46
2011-07-20 11:22 51°24.756 3°7.835 -999 326 16.3 100890 47
2011-07-20 11:23 51°24.922 3°7.679 -999 305 16.4 100880 47
2011-07-20 11:24 51°25.098 3°7.615 -999 281 16.4 100890 45
2011-07-20 11:25 51°25.286 3°7.605 -999 305 16.4 100890 46
2011-07-20 11:26 51°25.47 3°7.56 -999 281 16.4 100890 46
2011-07-20 11:27 51°25.656 3°7.549 -999 304 16.5 100890 46
2011-07-20 11:28 51°25.841 3°7.517 -999 281 16.4 100890 45
2011-07-20 11:29 51°26.021 3°7.505 -999 281 16.4 100890 45
2011-07-20 11:30 51°26.206 3°7.496 -999 304 16.5 100890 45
2011-07-20 11:31 51°26.381 3°7.456 -999 281 16.5 100890 45
2011-07-20 11:32 51°26.568 3°7.425 -999 305 16.5 100890 44
2011-07-20 11:33 51°26.755 3°7.404 -999 281 16.4 100890 45
2011-07-20 11:34 51°26.939 3°7.372 -999 305 16.4 100890 45
2011-07-20 11:35 51°27.124 3°7.376 -999 304 16.4 100890 45
2011-07-20 11:36 51°27.298 3°7.451 -999 281 16.3 100890 45
2011-07-20 11:37 51°27.481 3°7.475 -999 305 16.3 100890 44
2011-07-20 11:38 51°27.624 3°7.492 -999 281 16.3 100890 45
2011-07-20 11:39 51°27.741 3°7.517 -999 305 16.3 100900 45
2011-07-20 11:40 51°27.857 3°7.563 -999 281 16.3 100890 44
2011-07-20 11:41 51°27.849 3°7.656 -999 55 16.4 100910 45
2011-07-20 11:42 51°27.796 3°7.687 -999 34 16.5 100910 45
2011-07-20 11:43 51°27.738 3°7.698 -999 22 16.4 100910 44
2011-07-20 11:44 51°27.622 3°7.663 -999 -999 16.3 100910 45
2011-07-20 11:45 51°27.516 3°7.585 -999 351 16.2 100910 44
2011-07-20 11:46 51°27.442 3°7.491 -999 351 16.2 100910 45
2011-07-20 11:47 51°27.372 3°7.412 -999 3 16.1 100910 45
2011-07-20 11:48 51°27.308 3°7.343 -999 1 16.1 100910 44
2011-07-20 11:49 51°27.255 3°7.274 -999 2 16 100910 45
2011-07-20 11:50 51°27.205 3°7.197 -999 357 16 100910 45
2011-07-20 11:51 51°27.164 3°7.118 -999 350 15.9 100910 44
2011-07-20 11:52 51°27.123 3°7.034 -999 281 16 100910 45
2011-07-20 11:53 51°27.083 3°6.954 -999 281 16 100910 45
2011-07-20 11:54 51°27.039 3°6.874 -999 350 16 100910 45
2011-07-20 11:55 51°26.995 3°6.795 -999 351 16 100910 45
2011-07-20 11:56 51°26.951 3°6.718 -999 353 16 100920 43
2011-07-20 11:57 51°26.905 3°6.641 -999 359 16 100910 44
2011-07-20 11:58 51°26.859 3°6.564 -999 352 15.9 100910 44
2011-07-20 11:59 51°26.817 3°6.477 -999 281 16 100910 45
2011-07-20 12:00 51°26.81 3°6.371 -999 281 16.1 100910 45
2011-07-20 12:01 51°26.834 3°6.279 -999 305 16.1 100910 44
2011-07-20 12:02 51°26.875 3°6.215 -999 281 16.2 100910 44
2011-07-20 12:03 51°26.914 3°6.2 -999 281 16.2 100910 44
2011-07-20 12:04 51°26.953 3°6.207 -999 305 16.3 100920 43
2011-07-20 12:05 51°26.993 3°6.212 -999 281 16.3 100910 44
2011-07-20 12:06 51°27.04 3°6.213 -999 305 16.3 100910 44
2011-07-20 12:07 51°27.084 3°6.237 -999 281 16.3 100910 44
2011-07-20 12:08 51°27.113 3°6.3 -999 305 16.4 100910 44
2011-07-20 12:09 51°27.138 3°6.373 -999 281 16.5 100910 44
2011-07-20 12:10 51°27.165 3°6.443 -999 305 16.5 100910 44
2011-07-20 12:11 51°27.192 3°6.516 -999 281 16.6 100910 44
2011-07-20 12:12 51°27.217 3°6.59 -999 281 16.5 100910 43
2011-07-20 12:13 51°27.241 3°6.67 -999 281 16.6 100900 44
2011-07-20 12:14 51°27.265 3°6.746 -999 281 16.6 100900 44
2011-07-20 12:15 51°27.294 3°6.823 -999 305 16.6 100900 44
2011-07-20 12:16 51°27.32 3°6.896 -999 281 16.6 100910 44
2011-07-20 12:17 51°27.347 3°6.974 -999 305 16.6 100900 44
2011-07-20 12:18 51°27.373 3°7.052 -999 281 16.6 100900 44
2011-07-20 12:19 51°27.399 3°7.136 -999 281 16.6 100900 44
2011-07-20 12:20 51°27.421 3°7.216 -999 305 16.7 100900 43
2011-07-20 12:21 51°27.417 3°7.314 -999 281 16.7 100900 44
2011-07-20 12:22 51°27.394 3°7.41 -999 79 16.7 100900 44
2011-07-20 12:23 51°27.347 3°7.498 -999 55 16.6 100900 44
2011-07-20 12:24 51°27.285 3°7.575 -999 79 16.6 100910 44
2011-07-20 12:25 51°27.218 3°7.615 -999 38 16.5 100910 43
2011-07-20 12:26 51°27.142 3°7.625 -999 25 16.5 100910 44
2011-07-20 12:27 51°27.077 3°7.609 -999 28 16.5 100900 44
2011-07-20 12:28 51°27.025 3°7.587 -999 22 16.4 100910 43
2011-07-20 12:29 51°26.981 3°7.562 -999 22 16.5 100900 44
2011-07-20 12:30 51°26.927 3°7.598 -999 25 16.5 100900 44
2011-07-20 12:31 51°26.893 3°7.589 -999 22 16.4 100910 44
2011-07-20 12:32 51°26.863 3°7.555 -999 16 16.4 100910 44
2011-07-20 12:33 51°26.846 3°7.414 -999 340 16.4 100900 44
2011-07-20 12:34 51°26.847 3°7.295 -999 281 16.4 100900 44
2011-07-20 12:35 51°26.845 3°7.191 -999 281 16.4 100900 44
2011-07-20 12:36 51°26.843 3°7.096 -999 281 16.5 100900 43
2011-07-20 12:37 51°26.838 3°7.003 -999 281 16.5 100900 44
2011-07-20 12:38 51°26.833 3°6.914 -999 281 16.5 100900 44
2011-07-20 12:39 51°26.83 3°6.831 -999 281 16.5 100900 44
2011-07-20 12:40 51°26.828 3°6.746 -999 281 16.6 100900 45
2011-07-20 12:41 51°26.823 3°6.658 -999 281 16.6 100900 45
2011-07-20 12:42 51°26.815 3°6.572 -999 281 16.6 100900 45
2011-07-20 12:43 51°26.81 3°6.488 -999 281 16.5 100900 44
2011-07-20 12:44 51°26.807 3°6.403 -999 281 16.5 100900 43
2011-07-20 12:45 51°26.803 3°6.316 -999 281 16.6 100900 44
2011-07-20 12:46 51°26.795 3°6.23 -999 281 16.6 100900 44
2011-07-20 12:47 51°26.789 3°6.144 -999 281 16.6 100910 43
2011-07-20 12:48 51°26.785 3°6.059 -999 343 16.6 100910 44
2011-07-20 12:49 51°26.782 3°5.974 -999 281 16.8 100910 44
2011-07-20 12:50 51°26.777 3°5.888 -999 342 16.7 100910 44
2011-07-20 12:51 51°26.769 3°5.802 -999 281 16.6 100900 44
2011-07-20 12:52 51°26.763 3°5.716 -999 345 16.4 100900 44
2011-07-20 12:53 51°26.761 3°5.633 -999 281 16.3 100910 45
2011-07-20 12:54 51°26.77 3°5.569 -999 329 16.4 100910 45
2011-07-20 12:55 51°26.793 3°5.536 -999 281 16.3 100910 44
2011-07-20 12:56 51°26.814 3°5.559 -999 305 16.4 100900 44
2011-07-20 12:57 51°26.817 3°5.634 -999 281 16.5 100910 44
2011-07-20 12:58 51°26.824 3°5.734 -999 305 16.6 100910 44
2011-07-20 12:59 51°26.84 3°5.845 -999 281 16.7 100910 43
2011-07-20 13:00 51°26.851 3°5.951 -999 281 16.7 100910 43
2011-07-20 13:01 51°26.86 3°6.054 -999 281 16.6 100910 42
2011-07-20 13:02 51°26.868 3°6.16 -999 281 16.7 100910 42
2011-07-20 13:03 51°26.874 3°6.264 -999 281 16.8 100910 42
2011-07-20 13:04 51°26.881 3°6.371 -999 281 16.8 100910 42
2011-07-20 13:05 51°26.89 3°6.475 -999 281 16.9 100910 43
2011-07-20 13:06 51°26.901 3°6.578 -999 281 17 100920 42
2011-07-20 13:07 51°26.912 3°6.682 -999 281 17 100910 43
2011-07-20 13:08 51°26.921 3°6.788 -999 281 17.1 100910 43
2011-07-20 13:09 51°26.927 3°6.896 -999 281 17 100910 42
2011-07-20 13:10 51°26.935 3°7.001 -999 281 17 100910 42
2011-07-20 13:11 51°26.947 3°7.109 -999 281 17 100910 42
2011-07-20 13:12 51°26.959 3°7.212 -999 281 17 100910 42
2011-07-20 13:13 51°26.968 3°7.326 -999 281 17 100920 42
2011-07-20 13:14 51°26.975 3°7.436 -999 281 16.9 100920 41
2011-07-20 13:15 51°26.984 3°7.544 -999 281 16.9 100920 41
2011-07-20 13:16 51°27.011 3°7.622 -999 281 16.9 100910 41
2011-07-20 13:17 51°27.051 3°7.626 -999 281 16.9 100920 41
2011-07-20 13:18 51°27.079 3°7.563 -999 342 16.8 100920 41
2011-07-20 13:19 51°27.084 3°7.467 -999 352 16.7 100910 41
2011-07-20 13:20 51°27.083 3°7.348 -999 348 16.6 100920 41
2011-07-20 13:21 51°27.079 3°7.222 -999 281 16.5 100920 41
2011-07-20 13:22 51°27.075 3°7.098 -999 350 16.4 100910 42
2011-07-20 13:23 51°27.073 3°6.969 -999 351 16.4 100920 42
2011-07-20 13:24 51°27.074 3°6.846 -999 349 16.3 100910 42
2011-07-20 13:25 51°27.075 3°6.719 -999 352 16.4 100910 42
2011-07-20 13:26 51°27.071 3°6.594 -999 350 16.3 100920 41
2011-07-20 13:27 51°27.067 3°6.464 -999 281 16.4 100910 42
2011-07-20 13:28 51°27.066 3°6.338 -999 348 16.3 100920 40
2011-07-20 13:29 51°27.067 3°6.216 -999 353 16.2 100910 39
2011-07-20 13:30 51°27.067 3°6.087 -999 346 16.3 100920 40
2011-07-20 13:31 51°27.093 3°6.003 -999 281 16.4 100920 40
2011-07-20 13:32 51°27.132 3°6.015 -999 305 16.5 100910 40
2011-07-20 13:33 51°27.137 3°6.097 -999 281 16.5 100920 40
2011-07-20 13:34 51°27.134 3°6.206 -999 281 16.5 100920 40
2011-07-20 13:35 51°27.14 3°6.321 -999 281 16.5 100920 40
2011-07-20 13:36 51°27.144 3°6.445 -999 281 16.6 100930 40
2011-07-20 13:37 51°27.147 3°6.57 -999 281 16.6 100930 40
2011-07-20 13:38 51°27.147 3°6.697 -999 281 16.5 100920 40
2011-07-20 13:39 51°27.159 3°6.842 -999 281 16.6 100930 41
2011-07-20 13:40 51°27.26 3°6.937 -999 281 16.6 100920 40
2011-07-20 13:41 51°27.356 3°6.819 -999 340 16.5 100920 38
2011-07-20 13:42 51°27.443 3°6.568 -999 281 16.6 100920 39
2011-07-20 13:43 51°27.521 3°6.276 -999 336 16.6 100920 38
2011-07-20 13:44 51°27.613 3°5.982 -999 339 16.6 100920 38
2011-07-20 13:45 51°27.715 3°5.708 -999 338 16.7 100920 39
2011-07-20 13:46 51°27.83 3°5.435 -999 281 16.7 100920 40
2011-07-20 13:47 51°27.94 3°5.169 -999 337 16.6 100920 38
2011-07-20 13:48 51°28.049 3°4.89 -999 281 16.7 100920 38
2011-07-20 13:49 51°28.166 3°4.623 -999 281 16.6 100920 39
2011-07-20 13:50 51°28.274 3°4.344 -999 339 16.7 100910 39
2011-07-20 13:51 51°28.39 3°4.067 -999 281 16.7 100920 39
2011-07-20 13:52 51°28.504 3°3.785 -999 281 16.7 100920 40
2011-07-20 13:53 51°28.621 3°3.51 -999 281 16.6 100920 39
2011-07-20 13:54 51°28.74 3°3.225 -999 336 16.6 100920 39
2011-07-20 13:55 51°28.854 3°2.953 -999 281 16.6 100920 39
2011-07-20 13:56 51°28.973 3°2.666 -999 337 16.6 100920 38
2011-07-20 13:57 51°29.095 3°2.387 -999 281 16.6 100930 39
2011-07-20 13:58 51°29.209 3°2.109 -999 334 16.6 100920 39
2011-07-20 13:59 51°29.304 3°1.812 -999 281 16.6 100930 40
2011-07-20 14:00 51°29.381 3°1.497 -999 281 16.6 100920 40
2011-07-20 14:01 51°29.448 3°1.277 -999 338 16.6 100930 39
2011-07-20 14:02 51°29.472 3°1.139 -999 281 16.5 100940 39
2011-07-20 14:03 51°29.464 3°1.031 -999 350 16.6 100940 40
2011-07-20 14:04 51°29.447 3°0.939 -999 351 16.5 100940 39
2011-07-20 14:05 51°29.432 3°0.853 -999 351 16.5 100940 41
2011-07-20 14:06 51°29.419 3°0.765 -999 351 16.4 100940 40
2011-07-20 14:07 51°29.407 3°0.679 -999 281 16.4 100940 41
2011-07-20 14:08 51°29.397 3°0.593 -999 348 16.4 100940 42
2011-07-20 14:09 51°29.387 3°0.507 -999 351 16.4 100940 43
2011-07-20 14:10 51°29.374 3°0.423 -999 350 16.3 100940 42
2011-07-20 14:11 51°29.361 3°0.341 -999 353 16.3 100940 41
2011-07-20 14:12 51°29.347 3°0.255 -999 354 16.2 100930 39
2011-07-20 14:13 51°29.339 3°0.17 -999 353 16.3 100940 41
2011-07-20 14:14 51°29.328 3°0.088 -999 356 16.3 100940 41
2011-07-20 14:15 51°29.306 3°0.011 -999 1 16.3 100940 41
2011-07-20 14:16 51°29.275 2°59.943 -999 2 16.3 100940 41
2011-07-20 14:17 51°29.242 2°59.877 -999 356 16.3 100940 41
2011-07-20 14:18 51°29.211 2°59.81 -999 357 16.3 100940 41
2011-07-20 14:19 51°29.181 2°59.741 -999 356 16.4 100940 42
2011-07-20 14:20 51°29.153 2°59.671 -999 358 16.3 100940 39
2011-07-20 14:21 51°29.124 2°59.6 -999 354 16.4 100940 41
2011-07-20 14:22 51°29.093 2°59.534 -999 354 16.4 100940 41
2011-07-20 14:23 51°29.062 2°59.469 -999 350 16.3 100940 41
2011-07-20 14:24 51°29.03 2°59.402 -999 354 16.4 100940 41
2011-07-20 14:25 51°28.999 2°59.336 -999 350 16.3 100940 41
2011-07-20 14:26 51°28.972 2°59.269 -999 350 16.4 100940 41
2011-07-20 14:27 51°28.944 2°59.202 -999 352 16.3 100940 41
2011-07-20 14:28 51°28.916 2°59.136 -999 350 16.3 100940 40
2011-07-20 14:29 51°28.887 2°59.075 -999 352 16.5 100940 42
2011-07-20 14:30 51°28.857 2°59.012 -999 350 16.3 100940 40
2011-07-20 14:31 51°28.829 2°58.95 -999 349 16.3 100950 40
2011-07-20 14:32 51°28.803 2°58.884 -999 281 16.3 100940 40
2011-07-20 14:33 51°28.778 2°58.819 -999 350 16.3 100950 40
2011-07-20 14:34 51°28.752 2°58.758 -999 350 16.3 100940 40
2011-07-20 14:35 51°28.724 2°58.697 -999 353 16.3 100940 39
2011-07-20 14:36 51°28.697 2°58.637 -999 281 16.3 100940 39
2011-07-20 14:37 51°28.671 2°58.57 -999 347 16.3 100940 39
2011-07-20 14:38 51°28.605 2°58.454 -999 281 16.3 100940 40
2011-07-20 14:39 51°28.466 2°58.328 -999 338 16.4 100940 40
2011-07-20 14:40 51°28.297 2°58.174 6.2 279 16.4 100940 40
2011-07-20 14:41 51°28.113 2°58.037 6.4 337 16.5 100930 41
2011-07-20 14:42 51°27.929 2°57.907 3.3 283 16.5 100930 39
2011-07-20 14:43 51°27.75 2°57.775 5 338 16.4 100930 39
2011-07-20 14:44 51°27.554 2°57.679 5.7 279 16.5 100930 38
2011-07-20 14:45 51°27.368 2°57.558 6.3 334 16.5 100930 40
2011-07-20 14:46 51°27.18 2°57.446 5.3 285 16.5 100930 40
2011-07-20 14:47 51°26.986 2°57.349 5.8 337 16.4 100930 39
2011-07-20 14:48 51°26.796 2°57.246 5.6 284 16.4 100930 39
2011-07-20 14:49 51°26.605 2°57.155 6.2 335 16.4 100930 38
2011-07-20 14:50 51°26.414 2°57.037 6.3 281 16.5 100930 39
2011-07-20 14:51 51°26.222 2°56.936 5.9 335 16.4 100930 38
2011-07-20 14:52 51°26.031 2°56.847 5.3 283 16.4 100930 38
2011-07-20 14:53 51°25.84 2°56.729 5.7 283 16.4 100930 40
2011-07-20 14:54 51°25.651 2°56.621 5.1 337 16.4 100930 39
2011-07-20 14:55 51°25.465 2°56.524 5.4 284 16.4 100930 39
2011-07-20 14:56 51°25.274 2°56.412 6.3 284 16.5 100930 39
2011-07-20 14:57 51°25.084 2°56.313 5.7 337 16.4 100920 39
2011-07-20 14:58 51°24.899 2°56.217 5.9 278 16.4 100930 40
2011-07-20 14:59 51°24.711 2°56.108 5.1 284 16.4 100930 39
2011-07-20 15:00 51°24.525 2°56.009 5.4 336 16.5 100930 40
2011-07-20 15:01 51°24.345 2°55.898 5.4 279 16.5 100930 39
2011-07-20 15:02 51°24.154 2°55.808 5.3 339 16.4 100920 38
2011-07-20 15:03 51°23.97 2°55.717 5.2 282 16.4 100920 39
2011-07-20 15:04 51°23.788 2°55.627 5.5 339 16.4 100930 39
2011-07-20 15:05 51°23.605 2°55.516 6.1 285 16.5 100930 40
2011-07-20 15:06 51°23.421 2°55.423 5.6 337 16.5 100930 41
2011-07-20 15:07 51°23.24 2°55.329 5.7 279 16.4 100930 39
2011-07-20 15:08 51°23.054 2°55.232 5.1 338 16.3 100930 41
2011-07-20 15:09 51°22.872 2°55.126 5.3 284 16.3 100930 40
2011-07-20 15:10 51°22.688 2°55.038 5.3 338 16.2 100930 41
2011-07-20 15:11 51°22.503 2°54.938 5.4 284 16.2 100940 40
2011-07-20 15:12 51°22.329 2°54.848 4.4 277 16.1 100930 41
2011-07-20 15:13 51°22.147 2°54.741 4.6 334 16.1 100940 41
2011-07-20 15:14 51°21.965 2°54.633 4.6 278 16.1 100940 41
2011-07-20 15:15 51°21.784 2°54.539 4.7 333 16.1 100930 42
2011-07-20 15:16 51°21.607 2°54.426 4.7 283 16 100930 42
2011-07-20 15:17 51°21.429 2°54.325 4.1 336 16 100940 42
2011-07-20 15:18 51°21.249 2°54.234 4.9 280 16.1 100930 41
2011-07-20 15:19 51°21.072 2°54.131 4.7 332 16.1 100930 40
2011-07-20 15:20 51°20.897 2°54.019 4.8 284 16.1 100940 40
2011-07-20 15:21 51°20.718 2°53.931 5.5 334 16 100940 40
2011-07-20 15:22 51°20.538 2°53.823 5.6 279 16.1 100940 40
2011-07-20 15:23 51°20.368 2°53.718 5.5 331 16.2 100940 40
2011-07-20 15:24 51°20.183 2°53.627 5.4 279 16.2 100940 41
2011-07-20 15:25 51°20.002 2°53.521 4.4 333 16.2 100930 40
2011-07-20 15:26 51°19.826 2°53.423 5.2 283 16.2 100940 39
2011-07-20 15:27 51°19.645 2°53.319 5.7 332 16.3 100940 41
2011-07-20 15:28 51°19.464 2°53.233 6.4 284 16.2 100940 41
2011-07-20 15:29 51°19.286 2°53.127 6.3 334 16.3 100940 41
2011-07-20 15:30 51°19.106 2°53.037 5.7 282 16.3 100940 42
2011-07-20 15:31 51°18.93 2°52.941 5.6 333 16.2 100940 41
2011-07-20 15:32 51°18.745 2°52.851 5.9 279 16.2 100940 42
2011-07-20 15:33 51°18.562 2°52.761 6 334 16.2 100940 41
2011-07-20 15:34 51°18.381 2°52.677 5.6 334 16.2 100940 40
2011-07-20 15:35 51°18.196 2°52.576 5.4 333 16.2 100940 40
2011-07-20 15:36 51°18.009 2°52.508 6.1 282 16.1 100940 41
2011-07-20 15:37 51°17.821 2°52.439 6.1 332 16.2 100940 41
2011-07-20 15:38 51°17.629 2°52.441 5.8 279 16.2 100940 41
2011-07-20 15:39 51°17.434 2°52.478 4.9 331 16.2 100950 41
2011-07-20 15:40 51°17.247 2°52.559 6.2 277 16.2 100940 40
2011-07-20 15:41 51°17.061 2°52.695 6 332 16.3 100940 41
2011-07-20 15:42 51°16.867 2°52.81 5.3 284 16.2 100950 42
2011-07-20 15:43 51°16.683 2°52.944 5 333 16.3 100940 42
2011-07-20 15:44 51°16.493 2°53.07 5.5 279 16.3 100940 41
2011-07-20 15:45 51°16.304 2°53.215 5.2 334 16.2 100940 42
2011-07-20 15:46 51°16.116 2°53.324 5.4 280 16.2 100940 41
2011-07-20 15:47 51°15.924 2°53.453 5.9 336 16.2 100940 41
2011-07-20 15:48 51°15.741 2°53.595 5.5 279 16.3 100940 42
2011-07-20 15:49 51°15.559 2°53.763 5.7 337 16.3 100940 42
2011-07-20 15:50 51°15.383 2°53.942 5.3 279 16.3 100940 42
2011-07-20 15:51 51°15.214 2°54.145 5.8 335 16.3 100930 42
2011-07-20 15:52 51°15.054 2°54.366 5.2 282 16.3 100940 42
2011-07-20 15:53 51°14.9 2°54.6 4.9 334 16.3 100930 42
2011-07-20 15:54 51°14.739 2°54.818 5.5 279 16.3 100940 42
2011-07-20 15:55 51°14.567 2°54.992 5 335 16.3 100950 42
2011-07-20 15:56 51°14.388 2°55.128 4.2 278 16.3 100940 42
2011-07-20 15:57 51°14.25 2°55.285 -999 338 16.4 100940 41
2011-07-20 15:58 51°14.134 2°55.405 -999 281 16.4 100940 42
2011-07-20 15:59 51°14.014 2°55.498 -999 343 16.4 100940 42
2011-07-20 16:00 51°13.91 2°55.573 -999 351 16.4 100940 42
2011-07-20 16:01 51°13.812 2°55.645 -999 346 16.4 100940 41
2011-07-20 16:02 51°13.737 2°55.739 -999 305 16.4 100940 41
2011-07-20 16:03 51°13.689 2°55.837 -999 281 16.5 100940 41
2011-07-20 16:04 51°13.655 2°55.929 -999 305 16.5 100940 41
2011-07-20 16:05 51°13.638 2°56.008 -999 281 16.6 100940 41
2011-07-20 16:06 51°13.636 2°56.018 -999 79 16.7 100940 41